Location: Newark
(47.5347°N, 5.5339°E)
Time: 05:39:44
(UTC+00:00)

N. Korean satellite - Visible Passes

Search period start: 20 September 2019 00:00
Search period end: 30 September 2019 00:00
Orbit: 455 x 509 km, 97.2° (Epoch: 18 September)

Date Brightness Start Highest point End Pass type
(mag) Time Alt. Az. Time Alt. Az. Time Alt. Az.
21 Sep 10.0 04:35:35 10° ENE 04:37:11 13° E 04:38:47 10° ESE visible
24 Sep 9.6 04:52:25 10° NE 04:55:02 20° E 04:57:40 10° SE visible
25 Sep 10.4 04:28:52 10° ENE 04:29:35 10° E 04:30:18 10° E visible
28 Sep 9.8 04:45:06 10° NE 04:47:26 17° E 04:49:46 10° SE visible
